EW0482 Weather Reports


Display with metric or nautical units.
time (UTC)temp
F
wind
direction
speed
MPH
gust
MPH
rain 1hr
in
rain 24hr
in
rain mn
in
humidity
%
barometer
mb
20260904051600 67 260 0.0 0.0 0.00 0.00 0.00 83 1001.3
20260904050100 67 260 0.0 0.0 0.00 0.00 0.00 82 1001.3
20260904044600 68 259 0.0 2.0 0.00 0.00 0.00 82 1001.3
20260904043104 68 260 0.0 1.0 0.00 0.00 0.00 82 1001.1
20260904041605 68 261 0.0 1.0 0.00 0.00 0.00 82 1001.1
20260904040058 68 263 1.0 5.0 0.00 0.00 0.00 83 1000.9
20260904034557 68 259 0.0 3.0 0.00 0.00 0.00 82 1000.8
20260904033057 68 254 0.0 4.0 0.00 0.00 0.00 82 1000.7
20260904031603 68 262 0.0 4.0 0.00 0.00 0.00 82 1000.6
20260904030056 69 249 0.0 4.0 0.00 0.00 0.00 82 1000.5
20260904024601 69 241 0.0 7.0 0.00 0.00 0.00 82 1000.5
20260904023055 70 248 2.0 6.0 0.00 0.00 0.00 80 1000.4
20260904021555 71 245 0.0 2.0 0.00 0.00 0.00 78 1000.4
20260904020100 71 245 0.0 5.0 0.00 0.00 0.00 77 1000.4
20260904014617 72 249 0.0 4.0 0.00 0.00 0.00 75 1000.5
20260904013116 72 252 1.0 6.0 0.00 0.00 0.00 74 1000.6
20260904011552 73 256 0.0 5.0 0.00 0.00 0.00 72 1000.5
20260904010105 74 242 0.0 1.0 0.00 0.00 0.00 71 1000.5
20260904004551 75 192 0.0 4.0 0.00 0.00 0.00 71 1000.6
20260904003057 75 213 0.0 6.0 0.00 0.00 0.00 71 1000.6
20260904001550 76 236 2.0 8.0 0.00 0.00 0.00 70 1000.7
20260904000050 76 189 0.0 4.0 0.00 0.00 0.00 71 1000.8
20260903234548 76 244 5.0 9.0 0.00 0.00 0.00 70 1000.9
20260903233050 76 249 0.0 6.0 0.00 0.00 0.00 72 1000.9
20260903231546 76 250 1.0 9.0 0.00 0.00 0.00 72 1001.1
20260903230044 76 248 1.0 8.0 0.00 0.00 0.00 70 1001.1
20260903224543 76 180 0.0 8.0 0.00 0.00 0.00 70 1001.3
20260903223048 75 171 0.0 10.0 0.00 0.00 0.00 72 1001.4
20260903221540 76 197 1.0 6.0 0.00 0.00 0.00 70 1001.6
20260903220038 76 250 4.0 10.0 0.00 0.00 0.00 70 1001.7
20260903214541 76 255 1.0 8.0 0.00 0.00 0.00 70 1001.8
20260903213043 76 244 0.0 10.0 0.00 0.00 0.00 71 1001.8
20260903211541 77 245 3.0 7.0 0.00 0.00 0.00 69 1001.8
20260903210035 78 246 2.0 8.0 0.00 0.00 0.00 68 1002.0
20260903204533 79 184 0.0 6.0 0.00 0.00 0.00 66 1002.1
20260903203033 79 254 0.0 8.0 0.00 0.00 0.00 66 1002.0
20260903201531 79 181 0.0 3.0 0.00 0.00 0.00 65 1002.0
20260903200030 79 236 0.0 3.0 0.00 0.00 0.00 65 1002.1
20260903194529 79 236 1.0 10.0 0.00 0.00 0.00 66 1002.2
20260903193027 78 261 3.0 7.0 0.00 0.00 0.00 66 1002.5
20260903191528 78 234 0.0 7.0 0.00 0.00 0.00 66 1002.7
20260903190024 79 241 3.0 7.0 0.00 0.00 0.00 63 1002.9
20260903184522 79 146 0.0 3.0 0.00 0.00 0.00 62 1003.0
20260903183020 78 80 1.0 5.0 0.00 0.00 0.00 62 1003.2
20260903181516 77 132 0.0 4.0 0.00 0.00 0.00 64 1003.4
20260903180017 77 67 1.0 4.0 0.00 0.00 0.00 64 1003.4
20260903174512 76 150 0.0 5.0 0.00 0.00 0.00 66 1003.5
20260903173010 76 263 0.0 1.0 0.00 0.00 0.00 70 1003.6
20260903171509 74 113 1.0 4.0 0.00 0.00 0.00 71 1003.6
20260903170003 73 58 0.0 2.0 0.00 0.00 0.00 74 1003.5
20260903164608 72 58 0.0 4.0 0.00 0.00 0.00 76 1003.5
20260903163058 72 108 0.0 5.0 0.00 0.00 0.00 77 1003.5
20260903161555 70 86 0.0 1.0 0.00 0.00 0.00 80 1003.6
20260903160054 70 84 0.0 1.0 0.00 0.00 0.00 80 1003.6
20260903154552 70 80 0.0 2.0 0.00 0.00 0.00 80 1003.6
20260903153058 69 78 0.0 3.0 0.00 0.00 0.00 81 1003.5
20260903151546 68 243 0.0 1.0 0.00 0.00 0.00 82 1003.4
20260903150046 68 244 0.0 1.0 0.00 0.00 0.00 83 1003.5
20260903144544 67 245 0.0 0.0 0.00 0.00 0.00 84 1003.3
20260903143047 67 245 0.0 0.0 0.00 0.00 0.00 84 1003.2
20260903141544 67 245 0.0 0.0 0.00 0.00 0.00 85 1003.0
20260903140046 66 245 0.0 0.0 0.00 0.00 0.00 85 1002.9
20260903134545 66 245 0.0 0.0 0.00 0.00 0.00 85 1002.8
20260903133043 66 245 0.0 0.0 0.00 0.00 0.00 85 1002.8
20260903131540 66 245 0.0 0.0 0.00 0.00 0.00 85 1002.8
20260903130052 66 245 0.0 0.0 0.00 0.00 0.00 86 1002.9
20260903124553 66 245 0.0 1.0 0.00 0.00 0.00 86 1002.8
20260903123045 66 245 0.0 0.0 0.00 0.00 0.00 86 1002.8
20260903121540 65 245 0.0 0.0 0.00 0.00 0.00 86 1002.8
20260903120037 65 245 0.0 0.0 0.00 0.00 0.00 86 1002.8
20260903114537 65 245 0.0 0.0 0.00 0.00 0.00 86 1002.9
20260903113036 65 245 0.0 0.0 0.00 0.00 0.00 86 1003.0
20260903111537 65 245 0.0 0.0 0.00 0.00 0.00 86 1002.9
20260903110041 65 245 0.0 0.0 0.00 0.00 0.00 86 1003.0
20260903104533 65 245 0.0 0.0 0.00 0.00 0.00 86 1003.0
20260903103032 66 245 0.0 1.0 0.00 0.00 0.00 86 1003.0
20260903101530 66 245 0.0 1.0 0.00 0.00 0.00 86 1003.1
20260903100036 66 248 0.0 1.0 0.00 0.00 0.00 86 1003.2
20260903094534 66 248 0.0 0.0 0.00 0.00 0.00 85 1003.2
20260903093031 66 248 0.0 0.0 0.00 0.00 0.00 85 1003.2
20260903091527 65 248 0.0 0.0 0.00 0.00 0.00 84 1003.4
20260903090026 65 248 0.0 0.0 0.00 0.00 0.00 84 1003.4
20260903084525 65 248 0.0 0.0 0.00 0.00 0.00 83 1003.4
20260903083023 66 248 0.0 0.0 0.00 0.00 0.00 83 1003.6
20260903081522 66 248 0.0 0.0 0.00 0.00 0.00 82 1003.6
20260903080020 66 248 0.0 0.0 0.00 0.00 0.00 82 1003.8
20260903074521 66 248 0.0 0.0 0.00 0.00 0.00 82 1003.7
20260903073020 66 248 0.0 1.0 0.00 0.00 0.00 82 1003.7
20260903071516 67 248 0.0 0.0 0.00 0.00 0.00 81 1003.7
20260903070016 67 248 0.0 0.0 0.00 0.00 0.00 81 1003.7
20260903064513 68 248 0.0 0.0 0.00 0.00 0.00 81 1003.6
20260903063020 69 248 0.0 0.0 0.00 0.00 0.00 80 1003.5
20260903061512 68 248 0.0 0.0 0.00 0.00 0.00 81 1003.6
20260903060034 68 249 0.0 0.0 0.00 0.00 0.00 82 1003.5
20260903054510 68 249 0.0 0.0 0.00 0.00 0.00 82 1003.4
20260903053010 68 249 0.0 0.0 0.00 0.00 0.00 82 1003.4